• In Hungary
  • List of Countries
  • For 7 days
  • Water Temperature
  • Satellite Maps
  • Weather Map
  • News
  • Weather Widgets
  • user-avatar
    Login

    Hourly Weather Bilsko

    Today, 20 August, Monday

    Time Temperature Precipitation Wind Pressure Humidity
    00:00 +20°C° 0 mm 2 mps 741 mmHg 74%
    01:00 +19°C° 0 mm 2 mps 740 mmHg 78%
    02:00 +19°C° 0 mm 2 mps 740 mmHg 79%
    03:00 +19°C° 0 mm 2 mps 740 mmHg 81%
    04:00 +19°C° 0 mm 2 mps 740 mmHg 82%
    05:00 +20°C° 0 mm 2 mps 740 mmHg 79%
    06:00 +21°C° 0 mm 2 mps 740 mmHg 75%
    07:00 +24°C° 0 mm 2 mps 740 mmHg 71%
    08:00 +25°C° 0 mm 2 mps 740 mmHg 66%
    09:00 +27°C° 0 mm 2 mps 739 mmHg 60%
    10:00 +29°C° 0 mm 3 mps 739 mmHg 54%
    11:00 +29°C° 0 mm 3 mps 739 mmHg 51%
    12:00 +30°C° 0 mm 3 mps 739 mmHg 48%
    13:00 +31°C° 0 mm 3 mps 739 mmHg 45%
    14:00 +31°C° 0 mm 3 mps 738 mmHg 46%
    15:00 +31°C° 0 mm 2 mps 738 mmHg 47%
    16:00 +31°C° 0 mm 2 mps 738 mmHg 48%
    17:00 +29°C° 0 mm 2 mps 738 mmHg 52%
    18:00 +28°C° 0 mm 2 mps 737 mmHg 56%
    19:00 +26°C° 0 mm 2 mps 737 mmHg 60%
    20:00 +25°C° 0.1 mm 2 mps 737 mmHg 63%
    21:00 +24°C° 0.1 mm 3 mps 738 mmHg 66%
    22:00 +22°C° 0.1 mm 3 mps 738 mmHg 69%
    23:00 +21°C° 0.1 mm 3 mps 738 mmHg 73%

    Tomorrow, 21 August, Tuesday

    Time Temperature Precipitation Wind Pressure Humidity
    00:00 +20°C° 0.1 mm 3 mps 738 mmHg 77%
    01:00 +19°C° 0.1 mm 2 mps 738 mmHg 80%
    02:00 +19°C° 0 mm 2 mps 739 mmHg 82%
    03:00 +19°C° 0 mm 2 mps 739 mmHg 83%
    04:00 +18°C° 0 mm 2 mps 739 mmHg 84%
    05:00 +19°C° 0 mm 3 mps 739 mmHg 82%
    06:00 +20°C° 0 mm 3 mps 740 mmHg 80%
    07:00 +20°C° 0 mm 4 mps 740 mmHg 78%
    08:00 +21°C° 0 mm 4 mps 740 mmHg 71%
    09:00 +22°C° 0 mm 4 mps 741 mmHg 64%
    10:00 +23°C° 0 mm 5 mps 741 mmHg 57%
    11:00 +25°C° 0 mm 5 mps 741 mmHg 55%
    12:00 +25°C° 0 mm 5 mps 741 mmHg 53%
    13:00 +26°C° 0 mm 5 mps 741 mmHg 51%
    14:00 +25°C° 0 mm 4 mps 741 mmHg 51%
    15:00 +25°C° 0 mm 4 mps 741 mmHg 50%
    16:00 +25°C° 0 mm 4 mps 741 mmHg 50%
    17:00 +22°C° 0 mm 3 mps 741 mmHg 54%
    18:00 +21°C° 0 mm 3 mps 741 mmHg 58%
    19:00 +19°C° 0 mm 2 mps 741 mmHg 62%
    20:00 +18°C° 0 mm 2 mps 741 mmHg 62%
    21:00 +17°C° 0 mm 2 mps 742 mmHg 63%
    22:00 +17°C° 0 mm 2 mps 742 mmHg 64%
    23:00 +16°C° 0 mm 2 mps 742 mmHg 66%

    Day after tomorrow, 22 August, Wednesday

    Time Temperature Precipitation Wind Pressure Humidity
    00:00 +15°C° 0 mm 2 mps 742 mmHg 69%
    01:00 +15°C° 0 mm 2 mps 742 mmHg 71%
    02:00 +15°C° 0 mm 2 mps 742 mmHg 74%
    03:00 +14°C° 0 mm 2 mps 742 mmHg 77%
    04:00 +14°C° 0 mm 2 mps 742 mmHg 80%
    05:00 +15°C° 0 mm 2 mps 743 mmHg 77%
    06:00 +16°C° 0 mm 2 mps 743 mmHg 74%
    07:00 +17°C° 0 mm 2 mps 743 mmHg 72%
    08:00 +19°C° 0 mm 2 mps 743 mmHg 66%
    09:00 +20°C° 0 mm 2 mps 743 mmHg 60%
    10:00 +23°C° 0 mm 2 mps 744 mmHg 54%
    11:00 +24°C° 0 mm 2 mps 743 mmHg 51%
    12:00 +24°C° 0 mm 2 mps 743 mmHg 49%
    13:00 +25°C° 0 mm 2 mps 743 mmHg 47%
    14:00 +25°C° 0 mm 2 mps 743 mmHg 48%
    15:00 +25°C° 0 mm 2 mps 742 mmHg 49%
    16:00 +25°C° 0 mm 3 mps 742 mmHg 50%
    17:00 +22°C° 0 mm 3 mps 742 mmHg 57%
    18:00 +20°C° 0 mm 3 mps 742 mmHg 64%
    19:00 +19°C° 0 mm 3 mps 742 mmHg 71%
    20:00 +18°C° 0 mm 3 mps 742 mmHg 73%
    21:00 +17°C° 0 mm 3 mps 742 mmHg 75%
    22:00 +16°C° 0 mm 3 mps 742 mmHg 76%
    23:00 +16°C° 0 mm 3 mps 742 mmHg 77%

    23 August, Thursday

    Time Temperature Precipitation Wind Pressure Humidity
    00:00 +16°C° 0 mm 3 mps 742 mmHg 78%
    01:00 +14°C° 0 mm 3 mps 742 mmHg 79%
    02:00 +14°C° 0 mm 3 mps 741 mmHg 80%
    03:00 +14°C° 0 mm 3 mps 741 mmHg 81%
    04:00 +13°C° 0 mm 3 mps 741 mmHg 82%
    05:00 +16°C° 0 mm 3 mps 741 mmHg 79%
    06:00 +17°C° 0 mm 3 mps 741 mmHg 76%
    07:00 +18°C° 0 mm 3 mps 741 mmHg 73%
    08:00 +20°C° 0 mm 3 mps 740 mmHg 69%
    09:00 +22°C° 0 mm 3 mps 740 mmHg 65%
    10:00 +24°C° 0 mm 3 mps 740 mmHg 60%
    11:00 +25°C° 0 mm 3 mps 740 mmHg 57%
    12:00 +27°C° 0 mm 3 mps 740 mmHg 54%
    13:00 +28°C° 0 mm 2 mps 739 mmHg 51%
    14:00 +28°C° 0 mm 2 mps 739 mmHg 50%
    15:00 +28°C° 0 mm 2 mps 739 mmHg 49%
    16:00 +28°C° 0 mm 1 mps 738 mmHg 49%
    17:00 +26°C° 0 mm 1 mps 738 mmHg 55%
    18:00 +24°C° 0 mm 1 mps 738 mmHg 61%
    19:00 +23°C° 0 mm 1 mps 738 mmHg 67%
    20:00 +21°C° 0 mm 2 mps 738 mmHg 70%
    21:00 +20°C° 0 mm 2 mps 738 mmHg 74%
    22:00 +20°C° 0 mm 2 mps 738 mmHg 78%
    23:00 +20°C° 0 mm 2 mps 738 mmHg 81%

    24 August, Friday

    Time Temperature Precipitation Wind Pressure Humidity
    00:00 +19°C° 0 mm 2 mps 737 mmHg 84%
    01:00 +19°C° 0 mm 2 mps 737 mmHg 86%
    02:00 +19°C° 0 mm 2 mps 737 mmHg 86%
    03:00 +19°C° 0 mm 2 mps 737 mmHg 85%
    04:00 +19°C° 0 mm 2 mps 736 mmHg 84%
    05:00 +20°C° 0 mm 3 mps 736 mmHg 79%
    06:00 +21°C° 0 mm 3 mps 736 mmHg 74%
    07:00 +22°C° 0 mm 3 mps 736 mmHg 68%
    08:00 +25°C° 0 mm 3 mps 736 mmHg 63%
    09:00 +27°C° 0 mm 3 mps 736 mmHg 58%
    10:00 +29°C° 0 mm 4 mps 736 mmHg 52%
    11:00 +30°C° 0 mm 4 mps 736 mmHg 48%
    12:00 +31°C° 0 mm 3 mps 736 mmHg 44%
    13:00 +33°C° 0 mm 3 mps 735 mmHg 41%
    14:00 +31°C° 0 mm 3 mps 735 mmHg 43%
    15:00 +31°C° 0 mm 3 mps 735 mmHg 46%
    16:00 +30°C° 0 mm 3 mps 735 mmHg 49%
    17:00 +29°C° 0.2 mm 3 mps 734 mmHg 55%
    18:00 +27°C° 0.2 mm 3 mps 734 mmHg 61%
    19:00 +25°C° 0.2 mm 2 mps 734 mmHg 67%
    20:00 +24°C° 1 mm 2 mps 734 mmHg 73%
    21:00 +23°C° 1 mm 2 mps 734 mmHg 80%
    22:00 +20°C° 1 mm 2 mps 734 mmHg 86%
    23:00 +21°C° 0.1 mm 1 mps 734 mmHg 87%

    25 August, Saturday

    Time Temperature Precipitation Wind Pressure Humidity
    00:00 +21°C° 0.1 mm 1 mps 734 mmHg 88%
    01:00 +21°C° 0.1 mm 1 mps 734 mmHg 89%
    02:00 +20°C° 0.6 mm 1 mps 734 mmHg 90%
    03:00 +20°C° 0.6 mm 1 mps 734 mmHg 92%
    04:00 +20°C° 0.6 mm 1 mps 733 mmHg 93%
    05:00 +21°C° 0.1 mm 1 mps 733 mmHg 90%
    06:00 +21°C° 0.1 mm 1 mps 733 mmHg 86%
    07:00 +20°C° 0.1 mm 0 mps 733 mmHg 83%
    08:00 +23°C° 0.5 mm 1 mps 733 mmHg 78%
    09:00 +25°C° 0.5 mm 2 mps 733 mmHg 72%
    10:00 +26°C° 0.5 mm 2 mps 733 mmHg 67%
    11:00 +25°C° 1.5 mm 4 mps 734 mmHg 70%
    12:00 +23°C° 1.5 mm 5 mps 734 mmHg 74%
    13:00 +22°C° 1.5 mm 7 mps 734 mmHg 77%
    14:00 +20°C° 0.5 mm 7 mps 734 mmHg 79%
    15:00 +17°C° 0.5 mm 6 mps 735 mmHg 80%
    16:00 +15°C° 0.5 mm 6 mps 735 mmHg 81%
    17:00 +15°C° 0 mm 5 mps 735 mmHg 82%
    18:00 +14°C° 0 mm 4 mps 736 mmHg 83%
    19:00 +14°C° 0 mm 3 mps 736 mmHg 84%
    20:00 +13°C° 0 mm 3 mps 736 mmHg 87%
    21:00 +14°C° 0 mm 2 mps 737 mmHg 89%
    22:00 +13°C° 0 mm 2 mps 737 mmHg 91%
    23:00 +13°C° 0 mm 2 mps 737 mmHg 93%
    Show more